This demonstration page uses our WeatherBlox Daily Observations layout. Learn more.

Left ArrowRight Arrow

38.88101, -77.10428

Hourly Observations for October 6, 2022

Temp ( °F °C ) Dew Point ( °F °C ) Humidity (%) Winds ( mph kmh ) Pressure ( in mb ) Visibility ( mi km ) Precip ( " mm )
12:52 am 00:52 Mostly Clear 57 13.9 55 12.8 93 93 Calm 30.00 1016 10 16 0.00 0.00
1:52 am 01:52 Mostly Clear 57 13.9 55 12.8 93 93 Calm 29.99 1016 10 16 0.00 0.00
2:52 am 02:52 Mostly Clear 56 13.3 54 12.2 93 93 Calm 30.00 1016 10 16 0.00 0.00
3:52 am 03:52 Mostly Clear 57 13.9 54 12.2 89 89 Calm 30.00 1016 10 16 0.00 0.00
4:52 am 04:52 Mostly Clear 56 13.3 50 10 80 80 N 3 6 30.00 1016 10 16 0.00 0.00
5:52 am 05:52 Clear 55 12.8 48 8.9 77 77 N 6 9 30.00 1016 10 16 0.00 0.00
6:52 am 06:52 Mostly Cloudy 55 12.8 49 9.4 80 80 NNE 5 7 30.02 1017 10 16 0.00 0.00
7:52 am 07:52 Mostly Sunny 57 13.9 50 10 77 77 NNE 5 7 30.03 1017 10 16 0.00 0.00
8:52 am 08:52 Mostly Sunny 60 15.6 51 10.6 72 72 VRB 3 6 30.05 1018 10 16 0.00 0.00
9:52 am 09:52 Mostly Sunny 66 18.9 51 10.6 59 59 N 7 11 30.05 1018 10 16 0.00 0.00
10:52 am 10:52 Mostly Sunny 69 20.6 52 11.1 54 54 N 7 11 30.04 1017 10 16 0.00 0.00
11:52 am 11:52 Mostly Sunny 73 22.8 52 11.1 48 48 NNW 8 13 30.04 1017 10 16 0.00 0.00
12:52 pm 12:52 Mostly Sunny 75 23.9 52 11.1 45 45 N 9 15 30.02 1017 10 16 0.00 0.00
1:52 pm 13:52 Mostly Sunny 76 24.4 52 11.1 43 43 N 9 15 30.01 1016 10 16 0.00 0.00
2:52 pm 14:52 Mostly Sunny 78 25.6 54 12.2 43 43 N 9 15 29.98 1015 10 16 0.00 0.00
3:52 pm 15:52 Partly Cloudy 77 25 52 11.1 42 42 NNW 6 9 29.98 1015 10 16 0.00 0.00
4:52 pm 16:52 Mostly Cloudy 76 24.4 54 12.2 47 47 N 6 9 29.98 1015 10 16 0.00 0.00
5:52 pm 17:52 Mostly Cloudy 74 23.3 53 11.7 48 48 N 8 13 29.98 1015 10 16 0.00 0.00
6:52 pm 18:52 Mostly Cloudy 69 20.6 55 12.8 61 61 N 5 7 29.98 1015 10 16 0.00 0.00
7:52 pm 19:52 Mostly Cloudy 67 19.4 55 12.8 66 66 Calm 30.00 1016 10 16 0.00 0.00
8:52 pm 20:52 Mostly Cloudy 64 17.8 57 13.9 78 78 S 7 11 30.01 1016 10 16 0.00 0.00
9:52 pm 21:52 Mostly Cloudy 63 17.2 57 13.9 81 81 S 6 9 30.01 1016 10 16 0.00 0.00
10:52 pm 22:52 Clear 63 17.2 57 13.9 81 81 WSW 3 6 30.02 1017 10 16 0.00 0.00
11:52 pm 23:52 Mostly Clear 60 15.6 57 13.9 90 90 S 5 7 30.03 1017 10 16 0.00 0.00

Powered by AerisWeather